Showing default

FLOCK 4Q 26, 58284

Orbit data source: Space-Track

FLOCK 4Q 26, 58284 is a payload satellite owned by Planet (US) in SSO that was launched on Sat, 11 Nov 2023 UTC via an FALCON 9 launch vehicle from the Air Force Western Test Range (AFWTR). Payloads include a variety of satellites, spacecraft, and rockets equipped with specific instruments for various scientific and technological missions. These include communications satellites like Starlink; space stations such as the ISS; scientific satellites like the Hubble; Earth observation satellites from companies like Planet Labs, Umbra, and HawkEye 360; GPS; miniature CubeSats for education and research; and military/defense satellites.

Loading next visibility...
FLOCK 4Q 26 details
Identifier
58284, 2023-174AE
Orbit
SSO
Last TLE update18 hours ago
Origin
Flag of USPlanet (US)
ManufacturerPlanet
MissionOperational Commercial Imaging
Bus & MotorCUBESAT 3U, Unknown motor
Mass5.7 kg wet, 5.7 kg dry
Launch date (UTC)
2023-11-11 (1 year ago)
Launch vehicle
FALCON 9
Launch site
Air Force Western Test Range (AFWTR)
Object type
Payload
Rocket body
Debris
Shape & HBRBox + 2 Pan, 0.3 m
Radar Cross Section0.035 m², Medium (>0.1 m² and < 1m²)

Expand to show TLE details & history

TLE from 18 hours ago
0 FLOCK 4Q 26
1 58284U 23174AE  24355.93647898  .00018411  00000-0  67056-3 0  9999
2 58284  97.4393  69.4969 0008230 301.4525  58.5910 15.28224617 62150
Epoch: 2024-12-20T22:28Z
Definitive object data (Epoch: 2024-12-20T22:28:31.783Z)
Latitude0.00001°
Longitude2.36963°
Altitude481.281 km
Speed7.626 km/s
True Right ascension04h 37m 59s
True Declination0° 00' 00"
Sunlit
Object was in full shadow at TLE epoch
Visualization TLE readout
Latitude76.25286°
Longitude-28.95576°
Altitude498.313 km
Speed7.62 km/s
Apparent Right ascension02h 59m 35s
Apparent Declination21° 37' 55"
Sunlit
Object is in full shadow
Visualization observer readout
Local Sidereal Time15:08:34
Azimuth2.374° NNE
Elevation-28.416°
Doppler factor1
Orbital elements
Apogee altitude483.719 km
Perigee altitude472.433 km
Semi-major axis6,856.213 km
Eccentricity0.000823
Inclination97.4393°
RAAN69.4969°
Arg. of periapsis301.4525°
True anomaly58.67153°
Mean anomaly58.591°
Eccentric anomaly58.63126°
Mean motion3.82311 °/min
BSTAR0.00067056
Orbital period94.16 mins
Loading maneuver chart data...
Loading historical data...
Loading historical data...
Loading historical data...
Loading historical data...
Loading historical data...
Loading historical data...
Loading historical data...

FLOCK 4Q 26 Visibility forecast

Observer location: undefined°, undefined

Span
Click to sort rows by Start time (UTC) header in descending order
Start Az.
Max El. time (UTC)
Max El. Az.
Max El.
End time (UTC)
End Az.
6 mins2024-12-21 17:53:10.391Z16.383° NNE2024-12-21 17:56:10.391Z48.583° ENE41.362°2024-12-21 17:59:10.391Z184.266° SSW
|